• In Latvia
  • List of Countries
  • For 7 days
  • Water Temperature
  • Satellite Maps
  • Weather Map
  • Weather Widgets
  • user-avatar
    Login

    Hourly Weather Tomdibuloq

    Today, 19 January, Friday

    Time Temperature Precipitation Wind Pressure Humidity
    00:00 -1°C° 0 mm 4 mps 742 mmHg 58%
    01:00 -1°C° 0 mm 4 mps 742 mmHg 57%
    02:00 -1°C° 0 mm 4 mps 742 mmHg 57%
    03:00 -1°C° 0 mm 4 mps 742 mmHg 57%
    04:00 -1°C° 0 mm 4 mps 741 mmHg 57%
    05:00 -1°C° 0 mm 4 mps 742 mmHg 57%
    06:00 -1°C° 0 mm 4 mps 742 mmHg 56%
    07:00 -1°C° 0 mm 4 mps 742 mmHg 56%
    08:00 0°C° 0 mm 4 mps 742 mmHg 53%
    09:00 +1°C° 0 mm 4 mps 742 mmHg 49%
    10:00 +3°C° 0 mm 4 mps 742 mmHg 45%
    11:00 +4°C° 0 mm 4 mps 742 mmHg 43%
    12:00 +5°C° 0 mm 4 mps 742 mmHg 41%
    13:00 +7°C° 0 mm 4 mps 742 mmHg 39%
    14:00 +6°C° 0 mm 4 mps 742 mmHg 41%
    15:00 +5°C° 0 mm 4 mps 742 mmHg 43%
    16:00 +5°C° 0 mm 4 mps 742 mmHg 45%
    17:00 +5°C° 0 mm 4 mps 742 mmHg 46%
    18:00 +4°C° 0 mm 4 mps 742 mmHg 48%
    19:00 +4°C° 0 mm 4 mps 742 mmHg 49%
    20:00 +4°C° 0 mm 4 mps 742 mmHg 47%
    21:00 +4°C° 0 mm 4 mps 741 mmHg 46%
    22:00 +4°C° 0 mm 4 mps 741 mmHg 45%
    23:00 +4°C° 0 mm 4 mps 741 mmHg 43%

    Tomorrow, 20 January, Saturday

    Time Temperature Precipitation Wind Pressure Humidity
    00:00 +4°C° 0 mm 4 mps 741 mmHg 42%
    01:00 +5°C° 0 mm 4 mps 741 mmHg 40%
    02:00 +4°C° 0 mm 4 mps 741 mmHg 40%
    03:00 +4°C° 0 mm 4 mps 741 mmHg 39%
    04:00 +4°C° 0 mm 4 mps 741 mmHg 39%
    05:00 +4°C° 0 mm 4 mps 741 mmHg 39%
    06:00 +4°C° 0 mm 4 mps 740 mmHg 38%
    07:00 +4°C° 0 mm 4 mps 740 mmHg 38%
    08:00 +5°C° 0 mm 3 mps 740 mmHg 35%
    09:00 +8°C° 0 mm 3 mps 740 mmHg 32%
    10:00 +9°C° 0 mm 3 mps 741 mmHg 30%
    11:00 +11°C° 0 mm 3 mps 740 mmHg 27%
    12:00 +12°C° 0 mm 3 mps 740 mmHg 25%
    13:00 +13°C° 0 mm 3 mps 739 mmHg 23%
    14:00 +13°C° 0 mm 3 mps 739 mmHg 24%
    15:00 +12°C° 0 mm 3 mps 739 mmHg 25%
    16:00 +12°C° 0 mm 2 mps 738 mmHg 27%
    17:00 +11°C° 0 mm 3 mps 738 mmHg 28%
    18:00 +10°C° 0 mm 3 mps 738 mmHg 29%
    19:00 +9°C° 0 mm 3 mps 738 mmHg 30%
    20:00 +9°C° 0 mm 3 mps 738 mmHg 30%
    21:00 +9°C° 0 mm 3 mps 738 mmHg 30%
    22:00 +8°C° 0 mm 3 mps 737 mmHg 30%
    23:00 +8°C° 0 mm 3 mps 737 mmHg 30%

    Day after tomorrow, 21 January, Sunday

    Time Temperature Precipitation Wind Pressure Humidity
    00:00 +8°C° 0 mm 3 mps 737 mmHg 30%
    01:00 +8°C° 0 mm 3 mps 737 mmHg 31%
    02:00 +7°C° 0 mm 3 mps 737 mmHg 31%
    03:00 +7°C° 0 mm 3 mps 737 mmHg 32%
    04:00 +6°C° 0 mm 2 mps 737 mmHg 33%
    05:00 +6°C° 0 mm 2 mps 737 mmHg 33%
    06:00 +6°C° 0 mm 2 mps 737 mmHg 34%
    07:00 +5°C° 0 mm 2 mps 737 mmHg 34%
    08:00 +7°C° 0 mm 2 mps 737 mmHg 30%
    09:00 +9°C° 0 mm 2 mps 738 mmHg 27%
    10:00 +12°C° 0 mm 1 mps 738 mmHg 24%
    11:00 +13°C° 0 mm 1 mps 738 mmHg 22%
    12:00 +14°C° 0 mm 1 mps 738 mmHg 20%
    13:00 +15°C° 0 mm 1 mps 737 mmHg 18%
    14:00 +14°C° 0 mm 1 mps 738 mmHg 21%
    15:00 +13°C° 0 mm 1 mps 738 mmHg 24%
    16:00 +12°C° 0 mm 1 mps 738 mmHg 28%
    17:00 +10°C° 0 mm 2 mps 738 mmHg 30%
    18:00 +9°C° 0 mm 2 mps 739 mmHg 33%
    19:00 +8°C° 0 mm 3 mps 739 mmHg 36%
    20:00 +7°C° 0 mm 3 mps 740 mmHg 40%
    21:00 +5°C° 0 mm 3 mps 740 mmHg 44%
    22:00 +4°C° 0 mm 3 mps 740 mmHg 48%
    23:00 +4°C° 0 mm 3 mps 740 mmHg 51%

    22 January, Monday

    Time Temperature Precipitation Wind Pressure Humidity
    00:00 +3°C° 0 mm 3 mps 740 mmHg 54%
    01:00 +3°C° 0 mm 3 mps 741 mmHg 57%
    02:00 +2°C° 0 mm 3 mps 741 mmHg 60%
    03:00 +2°C° 0 mm 3 mps 741 mmHg 62%
    04:00 +1°C° 0 mm 3 mps 741 mmHg 64%
    05:00 +1°C° 0 mm 3 mps 741 mmHg 66%
    06:00 +1°C° 0 mm 2 mps 742 mmHg 68%
    07:00 +1°C° 0 mm 2 mps 742 mmHg 70%
    08:00 +2°C° 0 mm 2 mps 742 mmHg 65%
    09:00 +3°C° 0 mm 2 mps 743 mmHg 61%
    10:00 +4°C° 0 mm 2 mps 743 mmHg 56%
    11:00 +5°C° 0 mm 2 mps 743 mmHg 52%
    12:00 +6°C° 0 mm 2 mps 742 mmHg 48%
    13:00 +7°C° 0 mm 2 mps 742 mmHg 44%
    14:00 +7°C° 0 mm 2 mps 742 mmHg 44%
    15:00 +7°C° 0 mm 2 mps 742 mmHg 44%
    16:00 +7°C° 0 mm 2 mps 742 mmHg 44%
    17:00 +6°C° 0 mm 2 mps 743 mmHg 48%
    18:00 +5°C° 0 mm 2 mps 743 mmHg 51%
    19:00 +4°C° 0 mm 2 mps 743 mmHg 55%
    20:00 +4°C° 0 mm 2 mps 743 mmHg 56%
    21:00 +4°C° 0 mm 2 mps 742 mmHg 58%
    22:00 +3°C° 0 mm 2 mps 742 mmHg 59%
    23:00 +2°C° 0 mm 3 mps 742 mmHg 60%

    23 January, Tuesday

    Time Temperature Precipitation Wind Pressure Humidity
    00:00 +2°C° 0 mm 3 mps 742 mmHg 61%
    01:00 +2°C° 0 mm 3 mps 741 mmHg 62%
    02:00 +1°C° 0 mm 3 mps 741 mmHg 63%
    03:00 0°C° 0 mm 4 mps 741 mmHg 64%
    04:00 0°C° 0 mm 4 mps 741 mmHg 65%
    05:00 0°C° 0 mm 4 mps 741 mmHg 65%
    06:00 0°C° 0 mm 4 mps 741 mmHg 66%
    07:00 -1°C° 0 mm 4 mps 741 mmHg 66%
    08:00 +1°C° 0 mm 5 mps 741 mmHg 61%
    09:00 +2°C° 0 mm 5 mps 741 mmHg 56%
    10:00 +5°C° 0 mm 5 mps 741 mmHg 51%
    11:00 +6°C° 0 mm 5 mps 741 mmHg 48%
    12:00 +7°C° 0 mm 6 mps 740 mmHg 45%
    13:00 +8°C° 0 mm 6 mps 740 mmHg 42%
    14:00 +8°C° 0 mm 6 mps 740 mmHg 42%
    15:00 +7°C° 0 mm 6 mps 740 mmHg 43%
    16:00 +7°C° 0 mm 6 mps 740 mmHg 44%
    17:00 +6°C° 0 mm 7 mps 740 mmHg 45%
    18:00 +5°C° 0 mm 7 mps 740 mmHg 47%
    19:00 +4°C° 0 mm 7 mps 740 mmHg 49%
    20:00 +3°C° 0 mm 7 mps 740 mmHg 49%
    21:00 +3°C° 0 mm 7 mps 740 mmHg 50%
    22:00 +2°C° 0 mm 7 mps 739 mmHg 50%
    23:00 +2°C° 0 mm 6 mps 739 mmHg 50%

    24 January, Wednesday

    Time Temperature Precipitation Wind Pressure Humidity
    00:00 +1°C° 0 mm 6 mps 739 mmHg 50%
    01:00 +1°C° 0 mm 6 mps 739 mmHg 51%
    02:00 +1°C° 0 mm 6 mps 739 mmHg 51%
    03:00 -1°C° 0 mm 7 mps 738 mmHg 51%
    04:00 -1°C° 0 mm 7 mps 738 mmHg 51%
    05:00 -1°C° 0 mm 7 mps 738 mmHg 51%
    06:00 -2°C° 0 mm 7 mps 738 mmHg 50%
    07:00 -2°C° 0 mm 7 mps 738 mmHg 50%
    08:00 -1°C° 0 mm 7 mps 739 mmHg 46%
    09:00 0°C° 0 mm 7 mps 739 mmHg 43%
    10:00 +1°C° 0 mm 8 mps 739 mmHg 40%
    11:00 +2°C° 0 mm 8 mps 738 mmHg 37%
    12:00 +4°C° 0 mm 8 mps 738 mmHg 34%
    13:00 +6°C° 0 mm 8 mps 738 mmHg 31%
    14:00 +5°C° 0 mm 8 mps 738 mmHg 31%
    15:00 +5°C° 0 mm 8 mps 738 mmHg 30%
    16:00 +5°C° 0 mm 8 mps 738 mmHg 30%
    17:00 +5°C° 0 mm 7 mps 738 mmHg 31%
    18:00 +4°C° 0 mm 7 mps 738 mmHg 32%
    19:00 +3°C° 0 mm 7 mps 738 mmHg 33%
    20:00 +2°C° 0 mm 7 mps 738 mmHg 34%
    21:00 +2°C° 0 mm 6 mps 738 mmHg 35%
    22:00 +1°C° 0 mm 6 mps 738 mmHg 36%
    23:00 +1°C° 0 mm 6 mps 738 mmHg 36%
    Show more